Location: Unspecified
(39.7192°N, 0.0000°E)
Time: 21:47:22
(UTC+00:00)

Courier 1B Rocket - Visible Passes

Search period start: 04 April 2026 00:00
Search period end: 14 April 2026 00:00
Orbit: 920 x 1201 km, 28.2° (Epoch: 28 March)

Date Brightness Start Highest point End Pass type
(mag) Time Alt. Az. Time Alt. Az. Time Alt. Az.
4 Apr 7.2 02:15:21 12° ESE 02:15:21 12° ESE 02:15:53 10° ESE visible
4 Apr 6.0 04:01:42 24° SSW 04:03:10 26° S 04:08:35 10° SE visible
5 Apr 6.4 03:04:20 23° SSE 03:04:20 23° SSE 03:07:36 10° SE visible
5 Apr 6.5 04:50:41 11° WSW 04:54:46 19° SSW 04:59:15 10° SSE visible
6 Apr 6.2 03:53:23 22° SSW 03:53:47 22° SSW 03:58:42 10° SE visible
7 Apr 6.8 02:56:09 17° SSE 02:56:09 17° SSE 02:57:57 10° SE visible
7 Apr 6.7 04:42:31 11° SW 04:45:19 14° SSW 04:48:29 10° S visible
8 Apr 6.5 03:45:22 17° S 03:45:22 17° S 03:48:30 10° SSE visible
11 Apr 6.9 19:53:19 10° S 19:55:08 11° SSE 19:55:08 11° SSE visible
12 Apr 6.7 20:42:07 10° SSW 20:44:39 17° S 20:44:39 17° S visible
13 Apr 6.6 19:41:44 10° SSW 19:45:54 17° SSE 19:47:43 15° SE visible
13 Apr 7.0 21:32:57 10° SW 21:34:07 14° SW 21:34:07 14° SW visible
